• In Netherlands
  • List of Countries
  • For 7 days
  • Water Temperature
  • Satellite Maps
  • Weather Map
  • Weather Widgets
  • user-avatar
    Login

    Hourly Weather Novoberezovka

    Today, 21 October, Sunday

    Time Temperature Precipitation Wind Pressure Humidity
    00:00 +15°C° 0 mm 1 mps 759 mmHg 79%
    01:00 +15°C° 0 mm 1 mps 759 mmHg 80%
    02:00 +15°C° 0 mm 1 mps 759 mmHg 81%
    03:00 +14°C° 0 mm 0 mps 759 mmHg 83%
    04:00 +14°C° 0 mm 1 mps 759 mmHg 83%
    05:00 +14°C° 0 mm 1 mps 759 mmHg 84%
    06:00 +14°C° 0 mm 1 mps 759 mmHg 85%
    07:00 +15°C° 0 mm 1 mps 759 mmHg 79%
    08:00 +18°C° 0 mm 1 mps 760 mmHg 73%
    09:00 +19°C° 0 mm 1 mps 760 mmHg 67%
    10:00 +20°C° 0 mm 1 mps 760 mmHg 62%
    11:00 +22°C° 0 mm 1 mps 760 mmHg 57%
    12:00 +23°C° 0 mm 1 mps 760 mmHg 53%
    13:00 +23°C° 0.2 mm 1 mps 760 mmHg 55%
    14:00 +23°C° 0.2 mm 1 mps 760 mmHg 57%
    15:00 +23°C° 0.2 mm 1 mps 760 mmHg 59%
    16:00 +22°C° 0.3 mm 1 mps 760 mmHg 65%
    17:00 +20°C° 0.3 mm 1 mps 760 mmHg 70%
    18:00 +18°C° 0.3 mm 2 mps 760 mmHg 76%
    19:00 +18°C° 0.1 mm 2 mps 760 mmHg 77%
    20:00 +18°C° 0.1 mm 2 mps 761 mmHg 77%
    21:00 +18°C° 0.1 mm 3 mps 761 mmHg 78%
    22:00 +17°C° 0 mm 3 mps 761 mmHg 77%
    23:00 +17°C° 0 mm 3 mps 761 mmHg 76%

    Tomorrow, 22 October, Monday

    Time Temperature Precipitation Wind Pressure Humidity
    00:00 +17°C° 0 mm 3 mps 761 mmHg 76%
    01:00 +17°C° 0 mm 4 mps 761 mmHg 75%
    02:00 +15°C° 0 mm 4 mps 761 mmHg 75%
    03:00 +15°C° 0 mm 4 mps 761 mmHg 75%
    04:00 +15°C° 0 mm 4 mps 761 mmHg 75%
    05:00 +14°C° 0 mm 4 mps 761 mmHg 74%
    06:00 +14°C° 0 mm 4 mps 761 mmHg 74%
    07:00 +15°C° 0 mm 4 mps 762 mmHg 68%
    08:00 +15°C° 0 mm 5 mps 762 mmHg 63%
    09:00 +16°C° 0 mm 5 mps 762 mmHg 57%
    10:00 +17°C° 0 mm 5 mps 762 mmHg 51%
    11:00 +19°C° 0 mm 6 mps 762 mmHg 46%
    12:00 +20°C° 0 mm 6 mps 762 mmHg 40%
    13:00 +20°C° 0 mm 6 mps 762 mmHg 39%
    14:00 +20°C° 0 mm 5 mps 762 mmHg 38%
    15:00 +20°C° 0 mm 5 mps 761 mmHg 37%
    16:00 +19°C° 0 mm 5 mps 761 mmHg 41%
    17:00 +18°C° 0 mm 4 mps 761 mmHg 45%
    18:00 +17°C° 0 mm 4 mps 761 mmHg 49%
    19:00 +17°C° 0 mm 4 mps 761 mmHg 49%
    20:00 +17°C° 0 mm 4 mps 761 mmHg 50%
    21:00 +15°C° 0 mm 4 mps 761 mmHg 50%
    22:00 +15°C° 0 mm 4 mps 761 mmHg 52%
    23:00 +15°C° 0 mm 4 mps 761 mmHg 55%

    Day after tomorrow, 23 October, Tuesday

    Time Temperature Precipitation Wind Pressure Humidity
    00:00 +15°C° 0 mm 4 mps 761 mmHg 57%
    01:00 +14°C° 0.1 mm 4 mps 761 mmHg 64%
    02:00 +14°C° 0.1 mm 3 mps 760 mmHg 71%
    03:00 +13°C° 0.1 mm 3 mps 760 mmHg 78%
    04:00 +13°C° 0 mm 3 mps 760 mmHg 82%
    05:00 +13°C° 0 mm 3 mps 760 mmHg 86%
    06:00 +13°C° 0 mm 3 mps 760 mmHg 90%
    07:00 +14°C° 0 mm 3 mps 760 mmHg 87%
    08:00 +15°C° 0 mm 4 mps 760 mmHg 84%
    09:00 +15°C° 0 mm 4 mps 760 mmHg 81%
    10:00 +17°C° 0 mm 4 mps 759 mmHg 74%
    11:00 +17°C° 0 mm 5 mps 759 mmHg 67%
    12:00 +19°C° 0 mm 5 mps 759 mmHg 61%
    13:00 +20°C° 0 mm 5 mps 758 mmHg 58%
    14:00 +20°C° 0 mm 5 mps 758 mmHg 55%
    15:00 +21°C° 0 mm 5 mps 758 mmHg 51%
    16:00 +19°C° 0 mm 4 mps 758 mmHg 56%
    17:00 +18°C° 0 mm 3 mps 757 mmHg 61%
    18:00 +17°C° 0 mm 2 mps 757 mmHg 65%
    19:00 +16°C° 0 mm 2 mps 757 mmHg 69%
    20:00 +15°C° 0 mm 2 mps 757 mmHg 73%
    21:00 +15°C° 0 mm 2 mps 757 mmHg 76%
    22:00 +14°C° 0 mm 2 mps 757 mmHg 79%
    23:00 +14°C° 0 mm 2 mps 756 mmHg 82%

    24 October, Wednesday

    Time Temperature Precipitation Wind Pressure Humidity
    00:00 +13°C° 0 mm 2 mps 756 mmHg 85%
    01:00 +13°C° 0 mm 2 mps 756 mmHg 88%
    02:00 +13°C° 0 mm 2 mps 755 mmHg 90%
    03:00 +12°C° 0 mm 3 mps 755 mmHg 92%
    04:00 +11°C° 0 mm 3 mps 755 mmHg 93%
    05:00 +11°C° 0 mm 3 mps 754 mmHg 94%
    06:00 +11°C° 0 mm 3 mps 754 mmHg 95%
    07:00 +12°C° 0 mm 3 mps 754 mmHg 87%
    08:00 +13°C° 0 mm 4 mps 754 mmHg 79%
    09:00 +14°C° 0 mm 4 mps 754 mmHg 71%
    10:00 +15°C° 0 mm 5 mps 753 mmHg 67%
    11:00 +17°C° 0 mm 5 mps 753 mmHg 62%
    12:00 +19°C° 0 mm 5 mps 752 mmHg 58%
    13:00 +19°C° 0.2 mm 6 mps 751 mmHg 58%
    14:00 +19°C° 0.2 mm 6 mps 751 mmHg 59%
    15:00 +18°C° 0.2 mm 7 mps 750 mmHg 59%
    16:00 +17°C° 0.5 mm 6 mps 749 mmHg 66%
    17:00 +16°C° 0.5 mm 6 mps 749 mmHg 73%
    18:00 +15°C° 0.5 mm 5 mps 748 mmHg 80%
    19:00 +15°C° 3.5 mm 5 mps 748 mmHg 81%
    20:00 +15°C° 3.5 mm 5 mps 748 mmHg 83%
    21:00 +15°C° 3.5 mm 5 mps 747 mmHg 85%
    22:00 +15°C° 2.1 mm 4 mps 747 mmHg 86%
    23:00 +15°C° 2.1 mm 4 mps 746 mmHg 87%

    25 October, Thursday

    Time Temperature Precipitation Wind Pressure Humidity
    00:00 +15°C° 2.1 mm 4 mps 746 mmHg 88%
    01:00 +15°C° 1.6 mm 4 mps 746 mmHg 88%
    02:00 +15°C° 1.6 mm 4 mps 745 mmHg 88%
    03:00 +14°C° 1.6 mm 4 mps 745 mmHg 88%
    04:00 +14°C° 1.4 mm 4 mps 745 mmHg 88%
    05:00 +14°C° 1.4 mm 4 mps 745 mmHg 88%
    06:00 +13°C° 1.4 mm 4 mps 745 mmHg 88%
    07:00 +13°C° 0.2 mm 4 mps 745 mmHg 86%
    08:00 +13°C° 0.2 mm 4 mps 745 mmHg 85%
    09:00 +13°C° 0.2 mm 4 mps 745 mmHg 84%
    10:00 +13°C° 0.6 mm 4 mps 745 mmHg 83%
    11:00 +13°C° 0.6 mm 4 mps 745 mmHg 83%
    12:00 +13°C° 0.6 mm 4 mps 746 mmHg 83%
    13:00 +13°C° 1.2 mm 4 mps 746 mmHg 82%
    14:00 +13°C° 1.2 mm 4 mps 746 mmHg 81%
    15:00 +12°C° 1.2 mm 4 mps 746 mmHg 81%
    16:00 +12°C° 0.1 mm 4 mps 747 mmHg 77%
    17:00 +11°C° 0.1 mm 4 mps 747 mmHg 74%
    18:00 +11°C° 0.1 mm 4 mps 748 mmHg 70%
    19:00 +10°C° 0 mm 4 mps 748 mmHg 67%
    20:00 +9°C° 0 mm 5 mps 749 mmHg 64%
    21:00 +8°C° 0 mm 5 mps 749 mmHg 62%
    22:00 +8°C° 0 mm 4 mps 750 mmHg 61%
    23:00 +8°C° 0 mm 4 mps 750 mmHg 61%

    26 October, Friday

    Time Temperature Precipitation Wind Pressure Humidity
    00:00 +8°C° 0 mm 4 mps 750 mmHg 60%
    01:00 +7°C° 0 mm 4 mps 750 mmHg 63%
    02:00 +7°C° 0 mm 4 mps 751 mmHg 66%
    03:00 +7°C° 0 mm 4 mps 751 mmHg 68%
    04:00 +7°C° 0 mm 4 mps 751 mmHg 70%
    05:00 +8°C° 0 mm 3 mps 752 mmHg 72%
    06:00 +8°C° 0 mm 3 mps 752 mmHg 75%
    07:00 +7°C° 0 mm 4 mps 753 mmHg 72%
    08:00 +8°C° 0 mm 5 mps 753 mmHg 69%
    09:00 +8°C° 0 mm 5 mps 754 mmHg 66%
    10:00 +9°C° 0 mm 5 mps 754 mmHg 62%
    11:00 +10°C° 0 mm 6 mps 754 mmHg 58%
    12:00 +10°C° 0 mm 6 mps 754 mmHg 55%
    13:00 +10°C° 0.1 mm 6 mps 755 mmHg 52%
    14:00 +10°C° 0.1 mm 6 mps 755 mmHg 49%
    15:00 +10°C° 0.1 mm 7 mps 755 mmHg 47%
    16:00 +9°C° 0 mm 6 mps 755 mmHg 49%
    17:00 +8°C° 0 mm 5 mps 756 mmHg 52%
    18:00 +8°C° 0 mm 4 mps 757 mmHg 54%
    19:00 +7°C° 0 mm 4 mps 757 mmHg 56%
    20:00 +7°C° 0 mm 4 mps 758 mmHg 58%
    21:00 +6°C° 0 mm 4 mps 758 mmHg 60%
    22:00 +6°C° 0 mm 4 mps 759 mmHg 62%
    23:00 +5°C° 0 mm 4 mps 759 mmHg 63%
    Show more